RH
55 54 55 56 58 60 61 62 61 61 60 60 61 63 66 69 71 71 71 69 67 66 66 66 67 70 75 81 88 97 105 109 110 110 110 108 106 103 98 91 88 87 86 87 85 83 82 81 80 78 75 74 74 70 66 65 66 67 66 61 56 53 51 49 49 51 49 44 41 41 39 37 35 28 18 12 11 11 10 10 9 10 10 10 10
52 53 55 57 58 58 57 56 55 55 55 56 58 59 61 62 62 61 60 59 58 60 62 65 69 73 77 82 92 104 112 112 110 108 108 110 105 98 94 91 89 87 86 86 86 84 83 83 82 78 75 75 74 70 68 67 67 66 64 60 56 54 53 52 49 46 45 44 43 43 40 34 28 21 15 12 11 10 9 9 9 9 9 10 10
51 52 53 53 53 53 52 52 53 54 55 55 55 55 55 55 55 55 54 55 57 59 60 61 63 65 69 75 85 98 105 106 103 100 102 105 102 97 94 91 87 87 87 87 87 85 83 81 80 77 75 75 75 72 69 66 64 62 59 58 58 57 55 52 46 42 42 44 45 44 39 30 21 15 12 11 11 9 9 9 9 9 9 9 10
48 49 50 50 50 51 52 53 54 54 53 53 53 54 54 54 54 54 54 55 55 55 54 53 54 57 62 70 80 92 97 97 96 96 97 97 95 93 91 88 87 87 87 87 87 85 82 80 79 76 75 75 74 71 66 62 60 58 59 59 58 57 54 49 45 42 42 43 44 41 33 23 16 12 11 11 10 9 8 8 9 9 9 9 10
47 47 47 48 50 52 52 51 51 51 52 53 53 55 56 57 58 59 59 57 54 52 50 50 53 58 64 70 77 86 91 89 88 89 88 88 90 91 88 87 88 87 87 88 88 85 81 79 77 75 73 71 69 65 61 59 60 60 61 60 56 53 50 47 45 43 41 41 38 32 24 17 13 11 11 10 9 9 8 8 8 8 9 9 9
44 44 46 49 50 50 50 50 50 50 52 54 55 57 59 61 63 64 62 58 55 53 52 54 59 64 69 72 75 81 86 87 85 85 86 88 90 90 86 84 86 87 89 89 86 82 78 76 74 70 68 65 63 62 61 62 63 63 61 56 52 49 48 46 45 43 39 33 28 22 16 12 11 11 10 9 9 9 8 8 8 8 8 9 9
44 46 48 49 49 49 50 50 51 52 55 58 60 61 62 64 67 67 66 63 60 59 60 63 68 73 78 81 83 86 90 91 90 90 91 90 88 86 84 84 86 87 86 84 80 76 73 71 69 66 64 64 64 64 64 63 61 58 55 52 50 49 48 46 42 37 30 23 18 14 12 11 11 10 9 9 9 8 8 8 8 8 8 9 9
48 49 50 50 50 51 51 52 54 57 61 63 65 66 68 69 71 72 71 69 65 64 67 72 78 84 88 92 93 92 92 92 91 90 89 87 84 82 82 82 83 82 80 77 74 72 70 69 68 67 67 66 65 64 61 59 56 53 51 51 50 49 45 39 32 25 19 15 12 11 10 10 10 9 9 9 8 8 8 8 8 8 8 9 9
52 51 51 52 52 53 54 55 58 61 65 69 71 73 74 75 75 74 73 71 69 69 73 79 86 92 94 96 96 95 92 90 89 88 87 85 83 82 81 81 81 80 78 76 75 74 74 72 71 69 67 64 62 59 57 54 53 52 52 50 46 41 34 27 20 15 12 11 10 10 10 10 9 9 9 9 8 8 8 8 8 8 8 8 9
54 53 53 53 53 53 54 56 60 65 70 74 75 76 76 75 74 73 73 75 76 78 81 85 91 95 97 98 98 97 95 92 90 88 87 85 83 82 81 82 82 82 81 80 80 78 76 73 71 68 64 61 58 56 55 54 53 51 48 41 34 26 21 16 12 11 10 10 10 10 9 9 9 9 9 8 8 8 8 8 8 8 8 9 9
55 55 54 53 53 53 55 59 65 70 74 76 75 74 73 73 74 75 78 82 85 87 89 92 95 98 99 99 98 97 95 91 89 87 85 83 82 81 82 84 84 84 83 82 80 78 76 73 70 65 61 58 56 56 55 53 48 41 33 25 19 15 12 11 10 9 9 9 9 9 9 9 9 9 9 8 8 8 8 8 8 8 8 9 9
60 58 56 54 54 57 62 68 73 77 79 77 75 73 72 74 77 80 84 87 90 93 95 97 99 100 99 97 95 94 91 89 87 85 84 83 82 82 83 83 82 81 79 78 77 77 75 72 67 63 60 58 57 54 49 41 32 24 18 14 12 11 10 9 9 9 9 9 9 9 9 9 9 9 9 8 8 8 8 8 8 8 8 9 9
63 59 57 57 60 66 72 77 80 80 79 76 74 74 76 79 82 85 88 90 93 96 98 99 100 99 97 95 93 91 89 88 86 86 85 84 83 83 83 81 80 78 77 75 73 70 68 66 65 64 61 56 50 43 33 24 17 13 11 11 10 9 9 9 8 8 9 9 9 9 9 8 9 8 8 8 8 8 8 8 8 8 9 9 9
63 60 59 64 71 76 80 80 79 78 75 74 74 76 80 85 88 89 91 92 94 96 97 96 95 93 91 90 89 89 88 88 87 87 86 85 83 83 82 81 78 76 73 69 67 65 63 61 60 57 50 40 31 23 18 14 12 11 10 9 9 9 8 8 8 8 9 9 9 9 8 8 8 8 8 8 8 7 8 8 8 8 8 9 9
61 61 66 74 79 81 81 80 78 76 74 75 78 82 86 90 92 92 92 92 91 91 91 91 90 89 89 89 89 90 89 89 88 88 87 86 84 82 80 77 74 71 69 67 66 63 57 50 43 36 28 20 15 13 12 12 11 11 10 9 8 8 8 8 8 8 8 9 8 8 8 8 8 8 8 8 8 8 8 8 8 8 9 9 9
61 66 74 81 83 84 84 81 79 77 76 80 84 87 89 90 90 89 87 86 85 86 87 89 89 90 91 91 92 92 92 91 90 89 88 85 82 79 76 73 71 69 68 65 59 50 39 29 22 17 15 13 12 13 13 13 13 11 10 9 8 8 8 8 8 8 8 8 8 8 8 8 8 8 8 8 8 8 8 8 8 9 9 9 9
65 74 81 85 86 87 85 81 79 78 79 82 84 85 85 84 82 82 81 82 84 86 89 91 92 93 94 94 95 95 94 93 91 89 86 82 78 75 73 71 68 64 57 48 38 29 21 16 14 14 14 15 16 17 16 14 12 10 9 8 8 8 8 7 8 8 8 8 8 8 8 8 8 7 7 8 8 8 8 8 8 8 9 9 10
70 79 85 87 86 84 81 77 75 75 76 78 78 77 77 76 76 78 80 84 87 90 93 96 97 98 98 98 98 97 95 92 88 85 82 78 75 71 67 61 53 43 34 25 19 16 15 16 17 18 19 20 20 19 15 12 10 9 8 8 7 7 7 7 7 7 7 7 7 7 8 8 7 7 7 8 8 8 8 8 8 9 9 9 10
73 81 84 83 80 77 74 72 71 71 71 71 70 71 72 74 77 81 84 88 92 95 97 100 101 102 101 100 98 95 92 88 84 82 78 73 65 56 47 38 29 22 18 17 17 18 20 21 21 21 21 21 19 15 11 9 8 8 8 7 7 7 7 7 7 7 7 7 7 7 8 8 7 7 7 8 8 7 7 8 8 9 9 10 10
76 81 80 77 75 73 71 70 68 68 67 68 68 70 73 77 82 87 91 94 97 99 101 103 104 103 100 97 93 89 86 83 79 73 65 54 42 31 24 19 17 17 18 20 21 22 22 22 22 21 20 17 14 11 8 7 7 7 7 7 7 7 7 7 7 7 7 7 7 7 7 7 8 8 7 8 8 7 8 8 8 9 10 10 10
78 80 78 76 75 73 71 69 68 68 67 68 70 73 78 84 90 94 98 100 101 103 103 103 101 98 93 90 86 82 77 70 61 49 39 29 21 17 17 18 19 21 22 22 22 22 21 21 20 19 16 12 10 8 7 7 7 7 7 6 6 6 6 7 7 7 8 8 7 7 7 7 8 8 7 7 7 7 8 8 9 9 10 10 11
81 81 80 78 76 73 70 68 67 67 67 69 73 79 85 91 95 100 102 103 102 100 98 95 92 90 85 80 74 65 53 42 32 24 19 18 18 19 21 21 22 22 21 21 21 20 20 19 17 14 11 9 8 7 7 7 7 6 6 6 6 6 6 7 7 8 8 8 7 7 7 7 7 7 7 7 7 7 8 8 9 9 10 10 11
81 80 78 76 72 69 67 66 65 66 69 74 81 87 92 95 98 99 98 96 93 90 88 86 82 77 69 58 46 35 26 20 18 18 19 21 22 22 23 22 21 20 20 19 20 19 17 15 12 10 9 8 7 7 7 7 6 6 6 6 6 6 7 7 8 8 8 7 7 7 7 7 7 7 7 7 7 7 8 8 9 9 10 10 10
78 76 73 70 67 66 66 66 67 70 76 82 88 92 94 95 94 92 89 86 83 81 76 69 60 49 39 29 22 19 18 18 20 22 23 23 23 22 21 20 19 19 18 18 16 14 12 10 9 9 8 7 7 7 7 7 6 6 6 6 6 7 7 7 8 8 8 7 7 7 7 7 7 7 7 8 7 7 8 8 9 9 9 10 10
75 72 69 67 66 66 66 67 71 76 81 86 89 90 90 88 86 84 82 77 69 60 50 39 30 24 20 18 19 20 21 23 23 24 23 22 21 20 19 19 19 18 17 14 12 10 9 9 8 8 8 7 7 7 7 6 6 6 6 6 7 7 7 8 8 7 7 7 7 7 7 7 7 7 7 8 8 7 8 8 8 9 9 9 9
72 69 67 67 65 65 67 71 75 80 83 86 86 85 83 80 76 71 64 53 41 32 25 21 20 20 21 22 23 24 24 24 23 23 23 22 20 20 19 18 17 15 13 10 9 8 8 8 8 8 8 8 7 6 6 6 6 6 6 6 7 8 8 8 7 7 7 7 7 7 7 7 7 7 7 8 8 8 8 8 9 9 9 9 10
69 67 66 64 64 66 71 77 81 84 85 84 81 77 72 64 54 43 35 28 23 21 21 22 23 24 24 24 24 24 24 24 23 23 22 21 20 19 18 17 14 11 9 8 8 8 8 8 8 8 8 7 7 6 6 6 6 6 6 7 8 8 8 7 7 7 7 7 7 7 7 7 7 7 8 8 8 8 8 8 9 9 10 10 11
67 65 63 62 65 71 77 84 86 86 82 77 69 60 50 38 29 23 20 20 22 23 24 25 25 25 24 24 24 24 24 23 23 22 20 20 19 18 16 13 10 9 8 8 8 7 7 7 8 8 8 7 7 6 6 6 6 6 7 8 8 8 7 7 7 7 7 7 7 7 7 7 8 8 8 8 8 8 9 9 9 10 10 10 11
64 61 60 63 71 79 84 86 83 77 69 58 46 35 27 21 20 21 21 22 23 23 23 23 23 23 23 23 23 24 23 22 21 20 19 19 17 15 12 10 9 9 8 8 8 7 7 7 7 7 7 7 6 6 6 6 7 7 8 8 8 7 7 7 7 7 7 7 8 8 8 8 8 8 8 8 8 9 9 9 9 10 10 11 11
59 59 63 71 80 84 83 78 68 57 46 35 25 20 19 20 21 22 22 22 21 20 21 21 21 22 22 23 23 22 21 21 20 19 18 15 12 10 9 9 9 9 8 8 8 7 7 7 7 7 7 7 6 6 7 7 7 8 8 8 7 7 7 7 7 7 7 8 8 8 8 8 8 8 9 9 9 9 9 9 10 10 10 11 11
59 64 71 78 80 77 69 57 45 33 24 19 18 20 21 22 21 20 19 19 19 20 20 20 20 21 22 22 21 20 19 18 17 15 13 11 10 9 9 9 9 8 8 8 8 8 7 7 7 6 7 7 7 7 7 8 8 8 8 8 7 7 7 7 7 8 8 8 8 8 8 8 8 9 9 9 9 9 9 9 10 10 11 11 11
63 69 73 73 67 58 46 34 24 19 17 18 21 22 22 20 19 17 17 18 19 20 20 20 20 20 20 20 19 18 17 15 13 11 10 9 9 9 8 9 8 8 8 8 7 7 7 6 6 7 7 7 7 7 8 8 8 8 8 7 8 8 8 8 8 8 8 8 8 8 8 8 8 9 9 9 9 10 10 10 10 11 11 11 12
64 67 65 60 49 37 26 19 16 17 19 21 21 20 19 18 18 18 19 19 19 20 20 20 19 19 18 18 17 16 14 11 10 9 9 9 9 8 8 9 8 8 8 7 7 7 7 7 7 7 7 7 8 8 8 8 8 8 8 8 8 8 8 8 8 8 8 8 8 8 8 8 9 9 9 9 10 10 10 11 11 11 11 12 12
61 60 53 42 30 20 17 17 18 20 21 20 19 17 17 17 19 20 21 20 20 19 18 18 18 17 17 16 14 12 11 9 9 9 9 8 8 8 8 8 8 8 7 7 6 7 7 7 7 7 7 8 8 8 8 8 8 8 8 8 8 8 8 8 8 8 8 8 8 8 9 9 9 9 9 9 10 10 11 11 11 11 12 12 12
55 47 35 24 17 16 18 19 21 20 19 17 16 16 17 18 20 20 21 20 20 19 18 17 17 16 14 12 11 9 9 9 9 9 8 8 8 8 8 8 7 7 7 7 7 7 7 7 8 8 8 8 8 8 8 8 8 8 8 8 8 8 8 8 8 8 8 8 8 8 9 9 9 9 10 10 10 10 11 11 11 11 12 13 14
41 29 19 15 16 19 20 20 19 17 16 15 16 16 18 20 20 20 20 19 18 18 17 16 15 13 11 10 9 9 9 9 9 8 8 8 8 8 7 7 6 6 7 7 7 7 8 8 8 8 8 8 8 8 8 8 8 8 8 8 8 8 8 8 8 8 8 8 8 8 9 9 10 10 10 10 11 11 11 11 12 12 13 14 14
24 16 15 18 20 20 19 18 16 15 14 15 16 18 19 20 20 19 18 18 17 17 16 14 12 10 9 9 9 9 8 8 9 9 8 8 8 7 7 7 7 7 7 7 8 8 9 9 8 8 8 8 8 8 8 8 8 8 8 8 8 8 8 8 8 9 9 9 9 9 9 9 9 10 10 11 11 11 11 12 13 13 14 14 15
15 16 19 20 19 18 16 15 14 14 15 16 18 20 20 19 18 18 17 17 16 14 12 11 10 9 9 9 8 8 8 8 8 8 8 8 7 7 7 7 7 7 7 7 8 9 9 9 9 8 8 8 8 8 8 8 8 8 8 8 8 8 8 8 8 9 9 9 9 9 9 9 10 10 11 11 11 12 12 13 13 14 14 15 16
17 20 19 18 16 14 14 14 14 14 16 18 19 19 19 18 17 16 15 14 13 11 10 10 10 9 9 9 8 8 8 8 8 8 7 7 7 7 7 7 7 7 8 8 9 9 9 9 9 9 8 8 8 8 8 8 8 8 8 8 8 8 8 8 9 9 9 9 9 10 10 10 10 11 11 11 12 12 13 13 14 15 15 16 17
20 19 16 15 14 13 13 13 14 16 18 19 19 18 17 17 15 14 12 11 10 9 9 9 9 9 9 9 9 9 8 8 7 7 7 7 7 8 8 8 8 8 9 9 9 9 9 9 9 9 9 8 8 8 8 8 8 8 8 8 9 9 9 9 9 10 10 10 10 11 11 11 11 11 12 12 12 13 14 15 15 16 16 17 18
17 15 14 13 13 13 13 14 16 18 19 19 18 17 16 14 12 11 10 9 9 9 9 9 9 9 9 9 9 8 8 7 7 7 7 8 8 8 8 8 9 9 10 10 10 9 9 9 9 9 9 9 8 8 8 8 8 9 9 9 9 10 10 10 11 11 12 12 12 12 12 12 12 13 13 13 14 15 15 16 16 17 17 18 19
14 13 13 13 12 13 14 16 18 19 18 18 17 14 12 11 10 9 9 9 9 9 9 9 9 9 9 9 8 8 7 8 7 8 8 8 8 8 9 9 9 10 10 10 10 9 9 9 9 9 9 9 9 9 9 9 10 10 10 10 10 11 11 12 12 12 13 13 13 13 13 14 14 14 14 15 15 16 16 17 18 18 19 21 24
13 13 13 13 13 15 16 18 19 18 17 15 13 11 9 9 9 9 8 9 9 9 9 9 9 9 8 8 8 7 8 8 8 8 8 8 9 10 10 10 10 11 10 10 10 9 9 9 9 10 10 10 10 10 10 10 11 11 12 12 12 12 13 13 13 14 14 14 14 15 15 15 16 15 16 16 17 17 18 19 20 22 25 28 30
13 12 13 13 15 16 18 18 18 16 13 11 10 9 9 9 8 8 8 9 9 9 9 9 9 8 7 8 8 8 8 8 8 8 9 9 10 10 10 11 11 11 11 11 10 10 10 10 10 10 11 11 11 11 11 12 13 13 13 13 14 14 14 14 14 15 15 15 15 16 16 16 16 16 17 18 18 20 22 24 27 30 32 31 30
12 13 14 15 17 18 18 17 14 12 10 9 9 9 9 8 8 8 9 9 9 9 9 8 8 7 8 8 8 8 8 9 9 9 10 10 11 11 11 11 12 12 12 12 11 10 11 11 11 11 12 12 12 13 13 13 13 13 14 14 14 14 14 15 14 15 15 15 16 16 17 17 18 18 20 22 24 27 30 32 32 32 30 30 31
13 14 15 17 18 18 15 13 11 9 9 9 9 9 8 8 8 9 9 9 9 8 8 8 8 8 8 9 8 8 9 9 10 10 11 11 12 12 12 12 13 13 12 12 12 12 12 12 12 13 13 13 13 13 13 13 14 14 14 14 14 14 15 15 15 16 17 17 18 19 20 21 23 25 27 29 31 32 32 32 31 31 33 35 38
14 16 18 18 17 15 12 10 9 9 9 9 8 8 8 9 9 9 9 9 8 8 8 8 8 8 9 9 9 9 10 10 11 12 12 12 13 13 13 13 14 14 13 13 13 13 13 13 14 14 14 14 14 13 14 14 14 15 15 16 17 17 18 18 19 20 21 22 23 25 27 29 30 31 32 32 32 31 32 32 34 37 40 43 47
16 18 18 16 14 11 9 9 9 9 9 8 8 8 9 9 9 9 8 8 8 8 8 8 9 9 9 9 9 10 11 12 12 12 13 13 14 14 14 14 14 14 14 14 14 14 14 14 14 14 14 15 15 16 17 18 18 19 20 20 20 21 22 23 25 26 27 28 30 31 32 32 32 32 32 32 33 34 37 39 42 46 51 56 63
18 17 15 13 10 9 9 9 9 8 8 8 8 9 9 9 8 8 8 8 8 8 9 9 9 9 9 10 11 12 12 12 13 13 14 14 15 14 15 15 15 15 15 15 15 15 15 15 16 17 18 19 20 20 21 22 22 22 23 24 24 26 28 29 29 30 31 32 33 33 32 32 32 33 35 37 39 42 46 50 55 62 67 73 77
17 14 12 10 9 9 9 8 8 8 8 9 9 9 8 8 8 8 8 8 9 9 9 9 9 10 11 12 12 13 13 13 14 14 14 15 15 15 15 15 15 15 15 16 16 17 18 19 20 21 22 23 24 25 25 26 26 26 27 28 29 30 31 31 32 33 34 34 33 33 34 35 37 40 42 46 50 54 60 66 71 77 81 85 88
13 11 9 9 9 9 8 8 8 8 9 9 9 8 7 7 8 8 8 9 9 9 9 10 10 11 12 13 13 13 14 14 14 14 15 15 15 15 15 16 16 17 18 19 20 21 22 23 24 25 26 27 28 28 28 29 29 30 31 32 32 33 33 34 35 35 35 35 36 39 41 44 47 51 55 60 65 70 75 80 85 90 94 96 97
Wind_Speed
90 91 92 93 94 95 97 98 99 100 101 101 102 102 101 101 101 100 100 100 100 100 100 101 102 102 103 104 105 106 108 110 111 112 113 113 114 114 114 115 115 115 115 116 116 116 116 116 117 117 118 118 119 120 120 120 120 120 121 122 122 122 123 122 120 119 121 123 123 121 118 114 110 107 102 94 86 81 78 74 69 66 64 62 61
92 93 94 95 96 97 97 98 98 99 99 99 100 100 100 100 100 100 101 101 101 102 102 103 103 104 105 105 106 107 109 110 111 112 113 113 113 113 113 114 114 114 114 114 114 114 114 115 116 118 118 119 120 121 121 121 121 121 122 123 124 124 124 124 123 121 121 123 123 122 119 114 108 104 98 92 85 80 76 73 69 65 63 62 61
94 95 95 95 96 95 96 96 96 97 97 98 99 99 100 100 101 101 101 102 102 103 104 104 105 105 106 106 107 107 109 110 111 111 112 111 111 111 111 111 111 111 111 111 112 113 114 116 118 119 119 120 121 122 122 122 122 123 123 124 125 125 125 126 125 124 123 123 123 122 118 112 106 100 94 89 84 79 75 72 69 66 62 61 60
94 95 94 94 94 93 93 94 95 96 97 98 99 100 101 102 102 103 103 103 104 104 105 105 105 105 106 106 106 106 107 108 109 109 109 108 108 108 108 108 108 108 109 110 112 114 116 118 119 120 121 121 122 122 123 124 124 125 125 126 126 127 127 127 127 126 124 122 121 119 115 109 103 97 91 85 81 78 74 70 68 66 62 60 59
93 93 93 93 93 93 93 94 96 97 99 100 101 102 102 103 103 104 104 104 105 105 105 105 105 104 104 104 104 104 105 106 106 106 105 105 105 105 106 106 107 109 111 113 115 117 118 119 120 121 122 122 123 124 125 125 126 127 128 128 129 129 129 129 129 127 124 121 118 115 111 105 99 93 88 83 79 76 72 69 67 65 62 60 59
91 92 92 92 93 94 95 97 99 100 102 103 103 104 104 104 104 104 104 105 105 105 105 105 105 104 103 103 102 102 103 104 104 104 104 104 104 105 106 108 110 112 114 116 118 119 120 121 122 123 123 124 125 126 127 127 128 129 130 130 131 131 131 130 129 127 123 118 114 110 106 100 95 89 84 80 77 74 71 67 65 64 61 60 59
90 90 91 93 94 96 98 100 102 104 105 105 105 105 105 104 104 105 105 106 106 106 106 106 105 104 104 103 102 102 103 104 104 105 105 105 106 107 109 111 112 114 116 118 119 120 121 122 124 125 126 126 127 128 129 130 131 131 132 132 132 132 132 130 128 124 119 114 109 105 100 95 90 86 82 78 74 72 69 66 64 62 60 60 59
89 91 93 95 97 99 102 104 106 107 108 108 107 107 106 106 106 106 106 107 107 107 107 107 106 105 104 104 103 103 103 104 105 106 107 108 109 110 111 113 115 116 118 119 120 122 123 124 126 127 128 129 130 131 132 132 133 133 134 134 133 132 131 128 124 119 114 108 104 99 94 90 86 82 78 75 72 70 67 64 63 61 59 59 59
91 94 96 98 100 103 105 107 108 109 110 110 109 109 108 108 108 108 109 109 109 109 108 108 107 106 105 105 105 105 105 106 107 108 108 110 111 112 113 114 116 117 119 121 122 124 126 127 128 130 131 132 133 134 134 135 135 135 135 134 133 130 127 124 119 113 107 102 97 93 90 86 83 79 75 72 70 68 65 62 61 60 58 57 57
95 97 99 101 104 106 108 109 111 111 111 111 111 110 110 110 110 111 111 111 111 110 109 108 108 107 106 106 106 107 108 108 109 110 111 112 112 113 114 116 118 120 122 123 125 127 128 130 131 133 134 135 136 136 137 137 137 136 135 133 129 126 122 117 112 106 101 96 92 89 86 83 79 76 72 69 67 65 63 61 60 59 57 57 56
98 100 103 105 107 109 111 112 113 113 113 113 112 112 112 112 112 112 112 112 112 111 110 109 108 107 107 107 107 108 109 110 111 112 113 114 115 116 117 119 121 123 124 126 127 129 131 133 135 136 137 138 138 139 138 138 136 134 131 128 123 119 114 109 104 99 95 91 88 85 82 79 76 72 69 67 65 64 62 59 58 58 57 56 56
102 104 106 108 110 112 113 114 114 114 114 114 113 113 113 113 113 113 113 113 112 111 110 110 109 108 108 108 108 110 111 112 113 115 116 118 119 120 121 123 124 126 127 128 130 131 133 135 138 139 140 140 140 139 139 136 133 129 125 120 115 111 106 102 98 94 90 88 85 81 78 75 72 69 67 64 62 61 60 59 57 56 56 56 55
106 108 110 112 113 115 115 116 116 115 115 115 115 115 115 114 114 114 113 113 112 111 111 110 109 109 109 110 110 112 113 115 116 118 119 121 122 123 124 126 128 129 130 132 133 135 136 138 139 141 141 141 139 137 135 131 127 121 116 112 108 104 100 97 93 89 86 84 81 78 75 71 68 66 64 62 61 60 59 57 56 55 55 55 55
110 111 113 115 116 117 117 117 117 117 117 116 116 116 116 115 114 114 113 112 112 111 111 110 110 110 111 112 113 114 116 118 120 121 123 124 125 126 128 130 131 133 135 137 138 139 140 140 140 140 139 137 134 131 127 123 118 114 109 106 102 99 96 92 88 85 82 80 77 75 72 68 65 63 62 60 59 58 57 55 54 54 54 54 53
113 115 116 117 118 119 119 119 119 119 118 118 118 117 116 115 114 113 112 111 111 111 111 111 112 113 114 115 116 118 120 121 123 124 126 127 129 130 132 134 136 137 139 140 141 142 141 140 138 136 133 130 125 121 117 114 111 108 105 101 98 94 92 88 84 81 78 76 73 71 68 65 63 61 59 58 57 56 54 54 53 52 52 53 52
116 118 120 121 121 122 121 121 121 121 120 120 119 117 116 115 114 112 112 111 112 112 113 114 115 116 117 118 120 121 123 124 126 128 130 132 133 135 136 138 139 140 141 142 142 141 139 135 131 127 124 120 116 113 110 107 105 103 101 98 94 90 88 84 80 77 75 72 70 67 65 62 60 59 57 55 55 54 53 52 51 50 51 51 51
119 122 123 124 124 123 123 122 122 122 121 120 118 117 115 114 113 113 113 113 114 115 116 117 119 120 121 122 124 125 127 129 131 132 134 136 137 139 140 140 141 141 141 140 138 135 131 127 123 119 115 113 111 109 107 104 102 99 97 93 89 86 83 79 76 74 71 68 66 64 62 60 58 56 55 54 53 52 51 50 49 49 49 50 50
122 124 126 126 125 124 123 123 122 122 120 119 117 116 115 115 115 115 115 116 117 119 120 121 123 124 125 127 128 130 132 134 135 137 139 140 141 141 141 140 139 138 135 132 129 125 122 118 116 113 111 109 108 107 104 100 97 94 92 88 85 81 78 75 72 70 67 65 63 61 59 57 56 54 53 52 51 50 49 48 48 47 48 49 49
125 127 128 127 126 125 124 124 123 122 120 119 118 117 116 117 117 118 119 120 121 123 124 125 127 129 130 132 133 135 136 138 140 141 142 142 141 140 138 136 132 128 125 122 119 117 115 114 113 111 109 107 106 104 100 96 92 89 87 84 80 77 74 71 68 66 64 62 60 58 56 55 53 52 51 50 49 49 48 47 46 46 46 47 47
128 129 129 129 128 127 126 125 124 122 121 120 119 119 119 120 121 122 123 124 126 127 129 130 132 133 135 136 138 139 140 141 142 142 142 141 138 134 130 125 121 118 115 114 113 113 112 112 111 110 108 105 102 99 96 91 87 84 82 79 76 72 70 67 65 63 61 59 57 55 54 52 51 50 49 48 48 47 46 45 44 44 45 45 45
131 131 131 130 129 128 127 126 124 123 122 121 121 122 123 124 124 126 127 129 130 132 133 134 136 138 139 141 142 142 142 142 141 139 137 134 129 124 120 116 113 112 111 111 111 111 110 110 109 108 105 102 98 94 90 86 83 80 77 74 71 68 66 63 61 59 58 56 54 53 51 49 48 48 47 47 46 45 44 43 43 43 44 44 44
133 133 132 131 130 129 128 126 125 124 123 124 125 126 127 128 129 130 132 133 134 136 137 139 140 141 143 143 143 142 140 138 134 130 126 123 119 116 114 112 111 110 110 109 109 109 108 108 106 104 101 97 92 88 85 82 79 76 72 70 67 64 62 60 58 56 55 54 52 50 48 47 46 46 45 45 44 43 41 42 42 43 43 43 43
135 135 133 132 131 129 128 127 126 126 126 127 128 129 131 132 133 134 136 137 139 140 141 142 143 143 143 142 139 136 132 127 123 120 117 115 114 113 112 111 110 109 108 108 107 107 106 105 102 99 95 91 87 83 80 77 74 71 68 66 63 61 58 57 56 54 52 51 49 48 46 45 44 44 43 43 43 41 40 41 41 41 42 42 42
136 135 134 133 132 130 129 129 128 129 130 131 132 133 135 136 137 139 140 141 142 143 143 142 141 139 136 133 129 125 121 118 116 115 115 114 113 112 111 110 109 108 107 107 105 104 102 99 96 93 90 86 82 79 76 73 70 67 64 62 60 57 55 54 53 51 50 48 47 45 44 44 43 42 41 41 41 40 39 39 40 40 40 40 40
138 137 135 134 133 132 131 131 131 132 133 134 136 137 138 140 141 142 143 143 143 142 139 137 133 129 125 122 120 118 116 115 114 114 114 113 112 110 109 108 108 107 106 105 103 99 96 93 91 88 85 82 78 75 71 68 66 63 61 58 57 55 53 51 50 49 47 46 45 43 42 42 41 40 39 39 39 39 38 38 38 38 38 38 37
139 138 137 136 134 134 133 134 135 136 137 138 139 141 142 142 143 143 142 141 138 134 130 126 123 120 118 117 116 116 115 114 113 112 111 111 110 109 108 107 107 106 104 101 98 94 90 88 85 83 80 77 74 71 67 64 62 60 58 56 54 52 50 49 48 46 44 43 42 41 40 39 39 38 38 37 37 37 36 36 36 36 35 35 34
140 139 138 136 136 136 136 137 138 139 140 142 143 143 144 143 141 138 134 131 128 125 122 120 119 118 117 116 115 115 114 112 111 110 109 108 108 107 107 107 105 103 99 96 92 88 85 82 80 78 76 73 70 67 64 61 59 56 54 52 51 49 48 47 45 44 42 40 39 39 38 37 36 36 36 36 35 35 35 33 33 33 33 33 32
141 140 139 138 138 138 139 140 141 142 144 144 144 143 142 138 134 129 124 122 120 120 119 119 118 117 116 114 113 112 111 110 109 108 107 106 106 106 106 104 102 98 94 90 87 83 80 77 75 73 70 68 66 63 60 58 55 53 51 49 48 46 45 44 42 41 39 38 36 36 35 35 34 34 34 33 33 33 32 32 31 31 31 31 31
142 141 140 140 140 141 142 143 144 145 145 144 142 138 134 129 125 122 120 119 118 118 117 116 115 114 113 111 110 109 109 109 107 106 105 104 104 103 102 99 96 92 89 85 82 79 76 73 70 68 66 63 61 58 56 54 52 50 48 46 45 43 42 40 39 37 36 35 34 33 32 32 32 32 32 31 31 30 30 30 30 30 30 30 30
142 142 141 142 143 143 144 145 145 144 143 140 135 130 125 122 120 119 119 118 117 116 115 113 112 111 110 109 109 108 107 106 105 104 103 102 101 98 95 92 89 86 83 80 77 74 72 69 66 63 61 59 56 54 52 50 48 46 44 43 41 40 38 37 35 34 33 32 31 31 30 30 30 30 29 29 29 29 29 29 29 29 29 29 29
144 143 144 144 145 145 146 145 143 140 136 131 127 124 122 121 119 118 117 116 115 114 113 111 110 109 108 108 107 106 104 103 102 102 100 98 95 92 89 86 83 80 78 75 72 69 67 64 61 59 56 54 52 50 48 46 44 42 41 39 38 36 35 34 32 31 31 30 29 29 29 29 28 28 27 28 28 28 28 28 29 28 28 28 28
145 145 146 146 146 146 144 142 138 132 128 124 122 121 120 120 119 118 116 114 113 112 111 110 109 108 107 106 105 104 103 102 100 98 95 92 89 86 83 80 78 75 72 69 66 64 62 59 57 54 52 50 48 46 44 42 41 39 37 36 35 33 32 31 30 29 29 28 27 27 27 27 27 26 25 25 26 27 27 27 27 27 27 27 27
147 147 147 147 146 144 140 135 129 125 122 121 120 119 119 119 119 118 117 114 112 110 110 109 108 107 105 104 102 102 101 99 96 93 90 87 84 81 78 75 72 70 67 64 62 59 57 55 53 51 48 46 44 43 41 39 37 36 34 33 32 31 30 29 28 27 27 26 26 25 25 25 24 24 24 24 24 25 25 25 26 26 26 26 26
148 148 147 146 143 138 132 127 123 121 120 119 118 118 118 118 118 117 116 114 113 111 109 108 107 105 104 102 101 99 97 94 92 89 86 83 79 76 73 70 67 65 63 60 57 54 52 51 49 47 45 42 41 39 38 36 34 33 32 31 29 28 27 26 26 25 25 24 23 23 23 22 22 22 22 22 22 23 23 24 24 24 24 24 24
149 148 145 141 135 129 125 123 121 120 119 118 118 118 118 117 116 115 114 114 113 112 110 108 105 104 102 100 98 95 92 89 86 84 81 78 75 72 68 65 62 59 58 56 53 51 49 47 45 44 42 39 37 36 34 33 32 31 29 28 27 26 25 24 23 23 22 22 21 21 20 20 20 20 20 20 20 20 21 21 22 22 22 22 22
147 144 139 133 127 124 122 121 120 119 118 118 118 118 117 116 115 114 114 113 112 110 108 106 104 102 99 96 93 90 87 84 81 78 76 73 71 68 64 61 57 55 52 51 49 47 45 43 41 39 38 36 34 33 31 30 29 28 27 26 24 23 22 21 20 20 19 19 19 19 19 19 18 18 18 18 18 18 19 20 20 20 20 20 20
142 136 130 126 124 122 121 120 119 118 118 118 118 117 116 115 115 114 113 111 109 107 105 103 101 98 95 91 88 85 82 78 75 73 71 68 66 63 60 57 54 51 48 46 45 43 41 39 38 36 34 33 31 30 29 28 27 25 24 23 21 19 18 17 16 16 17 17 17 17 17 16 16 15 15 16 16 17 17 18 18 18 18 18 17
134 128 125 123 122 121 120 119 118 118 118 118 117 116 116 115 114 112 110 108 105 103 101 98 96 93 90 87 84 80 77 73 70 67 65 63 60 58 56 53 51 48 45 43 41 39 37 36 35 33 31 30 28 27 26 25 23 22 20 19 17 15 15 14 14 14 15 15 15 15 14 13 13 13 14 15 15 15 16 17 17 16 16 15 15
127 124 123 122 121 120 119 118 118 118 117 117 116 116 115 114 112 109 106 104 101 99 96 93 89 87 84 82 79 75 72 69 66 63 59 57 55 53 52 49 47 45 42 39 37 35 34 33 31 30 28 27 26 24 23 21 20 18 17 15 14 13 12 12 12 12 12 12 11 11 10 10 11 12 13 13 14 15 15 15 14 14 14 14 14
124 123 122 120 119 119 118 118 118 117 116 116 116 115 113 111 108 105 102 99 97 94 90 86 83 81 78 76 74 71 68 65 61 58 55 53 51 49 47 45 43 41 38 36 34 32 31 29 28 27 26 24 23 21 19 18 16 14 13 12 11 10 9 9 9 8 8 8 8 8 8 9 10 10 11 12 13 13 13 13 13 13 13 13 13
122 121 120 119 119 118 118 117 116 115 115 115 114 112 109 106 103 99 96 94 91 87 83 81 78 76 73 71 69 66 63 60 57 54 51 49 47 45 43 41 39 37 35 33 31 30 28 27 26 24 23 21 19 18 16 14 13 11 10 9 8 7 6 6 6 6 6 6 6 7 7 8 9 10 11 11 12 12 12 12 13 13 13 13 13
121 120 119 119 118 117 116 115 115 115 114 113 110 107 103 100 97 94 91 88 84 81 78 76 73 71 68 66 63 61 58 55 52 50 48 46 43 41 39 37 36 34 32 30 29 27 25 24 23 21 19 17 15 14 13 11 10 8 7 6 5 5 4 4 5 5 5 5 6 6 7 8 9 10 11 12 12 12 12 13 13 13 14 14 15
120 119 118 117 117 116 115 114 114 113 111 108 104 100 97 94 91 88 86 82 78 76 74 71 69 66 64 61 58 55 53 51 48 46 44 42 40 37 36 34 33 31 30 28 26 24 22 21 19 17 16 14 12 11 10 9 7 6 4 3 3 2 3 3 3 4 5 5 6 7 8 9 10 11 12 12 13 13 14 15 15 16 16 17 17
119 118 117 116 115 114 114 113 112 109 105 101 98 94 91 88 86 83 80 76 74 72 69 67 64 62 59 56 53 51 49 47 44 42 40 38 37 35 33 32 31 29 27 25 23 21 19 17 16 15 13 12 10 9 7 6 5 3 2 1 0 1 2 3 4 6 7 7 8 9 10 10 12 12 13 14 15 16 17 17 18 18 18 17 16
117 116 115 114 114 114 113 110 107 103 99 95 92 89 86 84 81 78 74 72 69 67 64 62 60 57 54 51 49 47 45 43 41 39 37 36 34 32 31 29 28 26 24 21 20 18 17 15 14 13 11 10 8 6 5 4 3 2 2 3 4 4 5 6 7 9 9 10 10 11 12 13 14 15 16 17 18 18 19 19 19 18 18 18 18
114 114 113 113 113 111 108 104 100 97 93 89 86 84 81 78 75 72 70 67 65 62 59 57 55 53 50 48 46 44 41 39 37 36 34 33 32 30 28 26 25 23 21 19 17 16 14 13 12 10 9 7 6 5 4 4 5 5 6 7 7 8 9 10 11 12 12 13 14 15 16 17 18 19 19 20 20 20 20 20 19 20 21 22 23
113 112 112 112 110 106 102 98 95 91 87 84 81 79 76 73 70 68 65 62 60 57 55 53 51 49 46 44 42 40 38 36 34 33 32 30 29 27 25 23 21 20 18 16 15 13 11 10 9 8 7 6 6 6 7 8 8 9 10 10 11 12 13 14 14 15 15 16 18 19 19 20 21 21 21 21 21 21 21 22 23 25 26 26 27
112 112 110 108 104 100 96 93 89 85 82 79 77 74 71 68 65 62 60 57 55 53 51 49 47 45 42 40 38 37 35 33 32 31 29 28 26 24 22 20 18 17 15 13 12 10 9 8 8 8 8 8 9 10 11 11 12 12 13 14 15 16 17 18 18 18 19 20 21 22 22 22 22 22 22 22 23 24 26 27 28 29 30 30 30
110 108 105 102 98 94 91 87 84 81 78 75 72 69 66 63 60 57 55 53 51 49 47 45 43 41 39 37 35 34 32 31 29 28 26 24 22 20 18 17 15 13 12 10 10 9 9 9 9 10 10 11 12 13 13 14 15 16 17 18 19 19 20 20 21 22 22 23 23 23 23 23 23 24 26 27 29 30 31 32 32 32 32 31 30
107 103 99 96 92 88 85 82 79 76 73 70 67 64 61 58 55 53 51 49 48 46 43 41 39 37 35 34 32 31 30 28 26 25 23 21 19 17 15 14 12 11 10 10 10 10 10 11 11 12 13 14 15 15 16 17 18 19 20 21 21 22 22 23 24 24 24 24 24 25 26 27 28 29 31 32 33 34 34 34 34 33 32 31 30
101 98 94 90 86 83 80 77 74 71 68 65 62 59 56 54 52 50 48 46 44 42 40 37 35 34 32 31 30 28 27 25 23 21 19 17 16 14 13 12 11 11 11 11 11 11 12 13 13 14 15 16 17 17 18 20 21 22 22 23 23 24 25 25 26 26 27 27 28 30 31 32 33 34 35 35 35 35 35 35 34 33 32 30 29
Wind_Direction
310 311 311 311 311 311 310 310 310 310 310 309 309 309 308 308 307 307 306 306 305 305 305 305 305 305 305 304 304 303 303 302 302 301 301 301 301 301 301 301 302 302 303 303 304 304 305 305 306 306 307 308 308 308 309 309 310 310 311 311 312 312 312 313 314 314 314 314 314 314 314 314 314 313 311 309 306 303 299 296 292 288 284 280 277
313 312 312 312 312 311 311 311 311 311 310 310 309 309 308 307 307 306 306 306 306 306 306 305 305 305 304 304 303 302 301 301 300 300 300 300 300 301 301 302 302 303 304 304 304 304 305 306 306 307 307 307 308 308 308 309 309 310 310 310 311 311 311 312 313 313 313 313 313 313 313 312 312 311 309 307 304 301 297 294 291 287 283 280 277
314 314 313 313 312 312 312 312 312 311 311 310 310 309 308 307 307 307 307 307 307 307 306 306 305 304 303 303 302 301 300 300 300 300 300 300 301 301 302 303 303 303 304 304 305 305 306 306 306 306 307 307 307 307 308 308 309 309 309 309 310 310 311 311 312 312 312 312 312 312 311 311 310 309 307 305 302 299 296 293 289 286 282 279 276
314 314 313 313 313 313 313 313 313 313 312 312 311 310 309 309 308 308 308 308 308 308 307 307 306 305 304 303 302 301 301 300 300 301 301 302 302 302 303 303 303 304 304 305 305 305 306 306 306 306 306 306 306 307 307 308 308 308 308 309 309 310 310 310 311 311 311 311 311 310 310 309 308 307 305 303 300 297 294 291 288 285 282 279 276
314 314 313 313 313 313 314 314 315 316 316 316 314 313 312 311 310 310 310 309 309 309 309 308 307 306 305 304 303 302 302 302 302 302 303 303 303 303 303 304 304 304 305 305 305 305 305 305 305 305 305 306 306 307 307 307 307 308 308 309 309 309 309 309 310 310 310 310 309 309 308 308 307 305 303 301 298 295 292 289 286 284 281 279 276
314 313 313 313 314 315 316 317 318 318 319 318 317 315 314 312 311 311 311 311 311 311 310 310 309 308 307 306 305 304 304 304 304 304 304 303 303 303 304 304 304 304 304 304 304 304 304 305 305 305 305 306 306 306 307 307 307 308 308 308 308 309 309 309 309 309 309 309 308 308 307 306 305 303 301 299 296 293 290 288 285 283 281 278 276
314 314 314 315 316 317 318 319 320 320 320 320 318 317 315 314 313 313 313 313 313 313 313 312 311 310 308 307 307 306 305 305 304 304 304 303 303 304 304 304 304 304 304 304 304 304 304 304 305 305 305 305 306 306 307 307 307 307 307 308 308 308 308 308 308 308 308 307 307 306 305 304 303 301 299 297 294 291 289 287 284 282 280 278 276
317 317 317 318 318 319 320 321 321 321 321 320 319 317 316 315 315 315 315 315 315 314 314 313 312 310 309 308 307 306 306 305 305 304 304 304 304 304 304 304 304 303 303 304 304 304 304 305 305 305 305 306 306 306 307 307 307 307 307 307 307 307 307 307 307 307 306 306 306 304 304 303 301 299 297 295 292 289 287 285 283 281 279 277 275
319 319 319 319 320 320 321 321 321 321 321 320 319 318 318 317 316 316 316 316 316 315 315 313 312 311 309 308 307 307 306 306 305 305 305 305 305 305 305 304 304 304 304 304 304 304 305 305 305 305 306 306 306 306 306 306 307 307 307 307 307 307 307 306 306 306 305 305 304 303 302 301 299 297 295 293 290 288 286 284 282 280 278 276 275
321 320 320 320 321 321 321 322 322 321 321 320 320 319 318 318 317 317 317 316 316 315 315 313 312 311 310 308 308 307 306 306 306 306 305 305 305 305 305 304 304 304 304 305 305 305 305 305 306 306 306 306 306 306 306 307 307 307 307 307 307 306 306 305 305 305 304 304 303 302 301 299 297 296 293 291 289 287 285 283 281 279 277 275 274
321 321 321 321 321 321 322 322 322 321 321 320 320 319 319 318 318 318 317 317 316 315 314 313 312 311 310 309 308 307 306 306 306 306 306 306 306 306 306 305 305 305 305 305 305 306 306 306 306 306 306 306 306 307 307 307 307 307 307 306 306 305 305 304 304 304 303 303 302 301 299 297 296 294 292 289 287 285 283 282 279 278 276 275 273
322 322 322 322 322 322 322 322 322 321 321 320 320 320 319 319 318 318 317 316 316 315 314 313 312 311 310 309 308 307 307 307 306 306 306 306 307 307 306 306 306 306 306 306 306 306 306 306 306 306 306 307 307 307 307 307 307 306 306 306 305 305 304 304 303 303 303 302 301 299 297 296 294 292 290 288 286 284 282 280 278 277 275 274 273
322 323 323 323 323 323 323 322 322 321 321 320 320 320 319 319 318 317 317 316 315 314 313 312 311 311 310 309 309 308 308 307 307 307 307 307 307 307 307 307 307 307 307 307 307 307 307 307 307 307 307 307 307 307 307 306 306 306 306 305 305 304 304 303 303 302 302 300 299 297 295 294 292 290 288 286 284 282 281 280 278 276 274 273 272
323 323 324 324 324 324 323 322 322 321 321 320 320 320 319 319 318 317 316 315 315 314 313 312 311 311 310 310 309 309 309 308 308 308 308 308 308 308 308 308 308 308 308 308 308 308 307 307 307 307 307 307 306 306 306 306 306 306 306 305 304 304 303 302 302 302 300 299 297 295 293 292 290 289 287 285 283 281 280 278 276 275 273 272 271
324 324 325 325 324 324 323 322 322 321 321 321 320 320 319 318 317 317 316 315 314 314 313 313 312 312 311 311 310 310 309 309 309 309 309 309 309 309 309 309 309 309 309 309 308 308 308 308 307 307 306 306 306 306 306 306 306 306 306 305 304 303 302 302 301 300 299 297 295 293 292 291 289 287 285 284 282 280 278 277 275 274 272 271 270
324 325 325 325 324 324 323 322 322 322 321 321 320 319 318 317 317 316 316 315 315 314 314 313 313 312 312 311 311 311 310 310 310 310 310 310 310 310 309 309 309 309 309 309 309 308 308 307 307 307 306 306 307 307 307 306 306 306 305 304 303 302 301 301 300 298 296 295 293 292 291 289 287 286 284 282 281 279 277 275 274 272 271 270 269
325 325 325 325 324 323 323 322 322 321 321 320 319 318 317 317 316 316 316 316 315 315 314 314 313 313 312 312 312 312 311 311 311 311 310 310 310 310 310 310 310 309 309 309 308 308 307 307 307 307 307 307 307 307 306 306 306 305 304 303 302 301 300 300 298 297 295 293 292 291 289 288 286 284 283 281 279 277 275 274 272 271 270 269 268
325 325 325 324 323 322 322 321 321 320 320 319 318 318 317 317 317 317 316 316 315 315 315 314 314 314 313 313 313 312 312 311 311 311 311 311 310 310 310 310 310 309 309 308 308 307 307 307 307 307 307 307 307 306 306 305 305 304 303 302 301 300 299 298 297 295 294 292 291 289 288 286 285 283 281 279 277 275 273 272 270 269 268 268 267
325 325 324 323 323 322 322 321 320 320 319 318 318 318 318 318 317 317 317 317 316 316 315 315 314 314 314 313 313 312 312 312 311 311 311 311 311 310 310 309 309 309 308 308 307 307 307 307 307 307 307 307 306 305 305 305 304 303 302 301 300 299 298 297 295 294 292 291 290 288 287 285 283 282 280 277 275 273 271 270 269 268 267 266 266
325 324 324 323 322 322 321 321 320 320 319 319 319 319 318 318 318 318 317 317 317 316 316 315 314 314 313 313 313 312 312 312 312 311 311 310 310 310 309 309 309 308 308 308 308 307 307 307 307 307 306 306 306 305 304 304 303 302 301 300 299 298 297 296 294 293 291 290 289 287 285 283 282 280 278 275 273 272 270 269 267 266 265 264 263
325 324 324 323 323 322 321 321 320 320 320 319 319 319 319 319 319 318 318 317 317 316 315 315 314 314 313 313 313 312 312 312 311 311 310 310 310 309 309 309 309 309 308 308 307 307 307 307 306 306 306 305 305 304 304 303 302 301 300 299 298 297 296 295 293 292 290 289 287 286 284 282 280 277 275 273 271 270 269 268 266 264 262 262 261
325 324 324 323 322 322 321 321 320 320 320 320 320 320 319 319 319 318 318 317 316 316 315 314 314 313 313 313 312 312 311 311 311 310 310 310 310 310 310 309 309 308 308 307 307 307 307 306 306 306 305 305 305 304 303 302 302 300 299 298 297 296 295 294 292 290 289 288 286 284 282 280 278 275 273 271 270 268 267 265 263 262 261 260 260
324 324 323 323 322 321 321 321 321 320 320 320 320 320 320 319 319 318 317 316 316 315 315 314 314 313 312 312 311 311 311 311 311 311 310 310 310 310 309 309 308 308 308 308 307 307 307 306 306 305 305 305 304 304 303 302 301 300 299 298 297 296 294 293 291 289 288 286 284 282 280 278 275 273 271 270 268 267 265 263 262 261 260 260 260
324 323 323 322 322 322 321 321 321 321 321 321 320 320 319 319 318 317 317 316 315 315 314 313 313 312 311 311 311 311 311 311 311 311 311 310 310 309 309 308 308 308 308 308 308 307 307 306 306 305 305 305 304 303 302 302 300 299 298 297 296 295 293 291 290 288 287 285 283 281 279 276 274 272 270 269 268 266 264 262 261 260 259 259 259
324 323 323 322 322 322 321 321 321 321 321 320 320 319 319 318 317 317 316 315 314 314 313 312 312 312 312 312 312 312 312 312 311 311 310 310 309 309 308 308 308 308 308 308 308 307 307 306 306 305 305 304 304 303 302 301 300 299 298 297 296 294 292 291 289 287 286 284 282 280 277 275 274 272 269 268 267 265 263 261 260 259 258 258 259
324 323 323 322 322 322 322 321 321 321 320 320 319 319 318 317 317 316 315 314 314 313 313 312 312 312 313 313 312 312 312 311 311 311 310 310 309 309 309 309 309 309 308 308 308 307 307 306 306 305 304 304 303 303 302 301 300 299 297 296 295 293 292 290 288 287 285 283 281 279 277 275 273 271 269 267 266 264 262 260 259 259 259 258 258
323 323 323 322 322 322 321 321 321 320 320 319 319 318 317 316 316 315 314 314 313 313 313 313 313 313 313 313 312 312 312 311 311 311 310 310 309 309 309 309 309 309 308 308 308 307 307 306 305 305 304 303 303 303 302 301 299 298 297 296 294 293 292 290 288 286 284 282 280 278 276 274 272 270 268 267 265 263 262 260 258 257 258 257 256
323 323 322 322 322 322 321 321 320 320 319 318 318 317 316 315 315 314 314 314 314 313 313 313 313 313 313 312 312 312 312 312 311 311 311 310 310 309 309 309 309 309 309 308 308 307 307 306 305 304 304 303 303 302 301 300 299 298 297 295 294 293 291 290 288 286 284 282 279 277 275 273 271 269 267 265 263 262 261 259 257 255 254 254 253
323 322 322 322 322 321 321 320 320 319 318 317 317 316 315 315 315 315 315 315 314 314 313 313 313 313 313 312 312 312 312 312 311 311 310 310 310 309 309 309 309 309 309 309 308 308 307 306 305 305 304 303 303 302 301 300 299 298 297 295 294 292 291 289 287 285 283 281 278 276 274 271 269 267 265 263 261 259 257 256 255 253 251 250 249
322 322 322 322 321 321 320 319 319 318 317 316 316 316 315 316 315 315 315 315 314 314 314 313 313 313 313 313 313 312 312 312 311 311 310 310 310 310 309 309 309 309 309 309 308 308 307 306 305 305 304 303 302 301 300 300 298 297 296 294 293 291 289 287 285 283 281 279 276 274 271 269 266 264 262 261 259 256 254 252 251 251 250 249 247
322 322 322 321 321 320 319 319 318 317 317 316 316 316 316 316 315 315 315 315 314 314 314 314 314 313 313 313 313 313 312 312 311 311 310 310 310 310 310 310 310 310 309 309 308 308 307 306 305 304 304 303 302 301 300 299 298 296 295 293 291 289 287 285 283 281 278 276 274 271 268 266 263 261 259 258 256 254 252 250 249 248 247 247 245
322 321 321 320 320 319 319 318 317 317 317 317 316 316 316 316 315 315 315 315 315 314 314 314 314 314 314 313 313 313 312 312 311 311 311 311 311 311 311 311 310 310 309 309 308 308 307 306 305 304 303 302 301 300 299 298 297 295 293 292 290 288 286 284 281 279 276 274 270 268 265 263 262 260 258 255 253 252 251 250 249 247 246 245 243
321 321 320 320 319 319 318 317 317 317 317 317 316 316 316 316 316 316 315 315 315 315 315 315 314 314 314 314 313 313 313 312 312 312 312 312 312 312 311 311 311 310 309 309 308 308 306 305 304 303 303 302 301 300 299 298 296 295 293 291 290 287 285 283 280 277 274 271 268 265 263 262 261 259 256 254 251 250 249 248 247 246 244 242 241
321 320 320 319 319 318 318 317 317 317 317 316 316 316 316 316 316 316 315 316 316 316 315 315 315 314 314 314 314 314 313 313 313 312 312 312 312 312 312 311 311 311 310 309 309 308 307 305 304 304 303 302 301 300 299 298 296 295 293 292 290 287 285 282 279 275 272 268 266 264 262 260 258 256 254 251 249 247 246 245 244 242 241 240 239
320 320 319 319 318 318 318 317 317 317 317 316 316 316 316 316 316 316 316 316 316 316 316 315 315 315 314 314 314 314 314 313 313 313 313 313 313 312 312 312 312 311 311 310 309 308 307 306 305 304 304 303 302 301 299 298 297 296 294 292 290 287 284 280 277 274 271 267 264 262 259 256 254 252 250 248 245 243 241 240 239 238 237 236 236
320 319 318 318 318 318 318 317 317 317 317 317 317 316 316 316 316 316 316 316 316 316 315 315 315 315 315 315 315 314 314 314 314 313 313 313 313 313 313 313 313 312 312 311 310 309 308 307 306 305 305 304 303 302 301 299 298 296 295 292 290 287 284 279 276 273 270 267 263 260 257 254 251 248 245 242 238 236 234 234 234 233 232 231 232
319 319 318 318 318 318 317 317 317 317 317 317 317 317 317 316 316 317 316 316 316 315 315 315 315 315 315 315 315 315 314 314 314 314 314 314 314 314 314 314 314 314 313 312 310 309 308 308 307 306 306 305 304 303 302 300 298 296 293 291 289 286 282 277 272 269 266 263 261 259 256 252 247 242 238 233 230 227 227 228 227 227 227 227 226
319 319 318 318 318 318 317 317 317 318 317 317 317 317 317 317 317 316 316 316 315 315 315 315 315 315 315 315 315 315 315 314 315 315 315 315 315 315 315 315 315 315 314 312 311 310 309 309 308 308 307 306 305 304 301 299 297 295 293 290 287 282 277 272 267 263 260 258 257 255 252 247 240 234 229 226 223 220 220 220 221 221 220 218 216
319 319 318 318 318 318 318 318 318 318 317 317 317 317 317 317 316 316 316 315 315 315 315 316 316 315 315 315 315 315 315 315 316 316 316 316 316 316 316 316 315 315 314 314 312 312 311 311 310 309 308 306 305 303 301 298 297 295 292 289 286 281 275 270 267 264 261 257 253 249 244 236 230 225 221 218 215 214 214 213 212 210 208 207 205
319 318 318 318 318 318 318 318 318 318 318 318 317 317 317 316 316 316 315 315 315 316 316 316 316 316 316 315 315 315 316 317 317 317 318 318 317 317 317 316 316 316 316 315 314 314 313 312 310 309 308 306 305 303 302 300 298 296 293 291 287 282 277 272 267 262 256 248 241 235 229 221 217 214 210 208 205 205 203 201 198 196 195 194 192
319 319 318 319 319 319 318 318 318 318 318 318 317 317 316 316 316 316 315 315 316 317 317 316 316 316 316 315 316 317 317 318 319 319 319 319 319 318 318 317 317 318 318 317 317 316 315 313 311 310 309 309 307 306 305 304 302 300 297 292 286 280 271 261 250 241 234 227 223 216 210 205 201 198 195 192 191 189 188 185 183 181 180 177 173
319 319 319 319 319 318 318 319 319 319 318 317 317 316 316 316 316 315 315 316 318 318 317 317 317 317 316 317 318 318 319 320 321 321 320 320 320 320 320 320 320 320 320 320 319 318 317 315 314 313 313 312 311 311 310 309 307 306 301 292 281 268 254 240 228 218 209 201 196 190 186 183 180 179 178 176 175 174 171 168 166 164 163 160 160
319 319 319 319 319 319 319 319 319 318 317 317 316 316 316 316 316 316 317 318 319 318 317 318 317 317 318 319 320 320 321 322 322 322 322 322 322 323 323 323 322 323 323 323 322 321 319 318 318 317 318 320 321 321 320 317 315 315 309 294 277 254 233 213 194 177 166 161 163 165 164 164 163 162 162 160 158 156 154 153 152 152 152 153 154
320 319 319 319 319 320 320 319 318 317 317 317 317 317 317 317 317 318 319 319 319 318 318 318 318 319 320 321 322 322 323 323 323 323 324 325 325 326 326 326 325 326 326 326 325 323 323 323 323 325 328 332 333 332 331 328 328 332 337 339 125 145 145 145 140 138 137 141 143 145 145 145 145 145 144 144 144 144 143 144 144 145 147 148 147
320 320 320 320 320 320 319 318 318 318 318 318 318 318 318 318 318 319 320 319 319 319 319 319 320 321 323 323 323 324 324 324 325 326 327 327 328 329 329 329 328 328 329 328 328 328 328 330 333 336 340 342 345 346 349 356 15 41 73 93 105 112 116 119 121 122 124 127 128 128 129 131 133 133 135 135 135 136 138 139 140 140 138 136 132
320 320 320 320 320 319 319 318 318 318 319 319 319 319 319 319 320 320 320 320 320 320 321 322 323 324 325 325 325 325 326 327 328 330 330 330 332 333 332 331 331 331 331 331 331 333 336 340 344 348 354 1 9 21 38 56 69 79 89 96 101 105 108 111 113 115 117 120 121 122 124 125 126 127 129 131 133 134 134 133 131 128 126 125 125
321 321 321 320 319 319 319 319 319 319 320 320 320 320 320 320 320 320 321 321 321 322 323 324 325 326 326 326 326 327 329 330 332 333 333 334 335 335 334 333 333 334 335 336 337 342 347 354 2 13 24 34 47 59 67 75 82 89 95 99 103 105 107 108 110 112 114 117 118 119 120 122 124 127 129 130 129 128 125 123 123 122 123 123 123
321 321 320 320 319 320 320 320 320 321 321 321 321 321 321 321 321 321 322 323 323 325 326 327 327 327 327 328 329 331 333 334 335 336 337 338 337 337 336 336 338 341 343 346 351 360 11 22 33 44 53 61 68 74 80 86 91 95 99 101 103 104 106 107 109 112 114 115 116 118 120 123 125 126 125 123 121 120 120 120 121 121 121 121 120
321 320 320 320 321 321 321 321 321 322 322 322 321 321 321 321 322 323 324 325 326 328 328 328 328 329 330 332 333 335 336 337 339 340 340 340 340 340 341 344 348 352 357 4 14 27 38 48 56 63 69 74 79 84 87 91 95 97 100 101 103 105 107 109 111 113 115 117 119 120 121 121 120 119 117 117 118 119 120 120 120 119 119 118 116
321 321 321 322 322 322 322 322 323 323 323 323 322 322 322 323 324 326 327 328 329 330 329 330 331 333 334 336 338 339 340 341 342 343 343 343 344 347 350 356 2 10 18 28 39 49 58 64 70 75 79 83 86 89 91 94 97 100 101 103 105 108 111 113 115 116 117 118 118 117 116 115 115 115 117 118 118 119 119 118 117 116 115 113 111
322 322 322 323 323 323 323 324 324 324 324 324 323 324 324 326 327 329 330 331 331 331 332 333 336 338 339 340 342 343 344 345 346 346 348 350 353 359 6 13 21 30 38 47 56 64 70 75 79 83 85 87 90 93 96 99 101 103 105 108 111 113 115 115 115 115 115 113 113 112 113 114 116 117 118 118 117 117 116 115 113 111 110 109 109